Regional Weather Roundup
Issued by NWS

Home | Current Version | Previous Version | Graphics & Text | Print | Product List | Glossary On
Versions: 1 2 3 4 5 6 7 8 9 10 11 12 13 14 15 16 17 18 19 20 21 22 23 24 25 26 27 28 29 30 31 32 33 34 35 36 37 38 39 40 41 42 43 44 45 46 47 48 49 50
296
ASUS45 KPSR 030610
RWRAZ

ARIZONA HOURLY REGIONAL WEATHER ROUNDUP
NATIONAL WEATHER SERVICE PHOENIX AZ
1100 PM MST MON MAY 02 2016

NOTE: FAIR INDICATES FEW OR NO CLOUDS BELOW 12,000 FEET WITH NO
SIGNIFICANT WEATHER AND/OR OBSTRUCTIONS TO VISIBILITY.

AZZ001>003-036-030700-
NORTHWEST ARIZONA

CITY           SKY/WX    TMP DP  RH WIND       PRES   REMARKS
BULLHEAD CITY  CLEAR     75  37  25 CALM      29.98S
KINGMAN        CLEAR     56  42  59 E6        30.09S
6HR MIN TEMP:  55; 6HR MAX TEMP:  73;

$$

AZZ004>008-015-016-018-030700-
NORTH CENTRAL ARIZONA

CITY           SKY/WX    TMP DP  RH WIND       PRES   REMARKS
GRAND CANYON   CLEAR     35  31  85 CALM      30.23S
6HR MIN TEMP:  35; 6HR MAX TEMP:  55;

WILLIAMS       CLEAR     36  32  87 SE7       30.29S WCI  30
PRESCOTT       CLEAR     47  41  80 SW3       30.15S
6HR MIN TEMP:  46; 6HR MAX TEMP:  64; 6HR PCP: TRACE;

FLAGSTAFF      CLEAR     33  33 100 CALM      30.22F
6HR MIN TEMP:  32; 6HR MAX TEMP:  45; 6HR PCP:  0.05;

PAYSON         PTCLDY    52  37  58 NE7       30.16F
PAGE           CLEAR     55  39  54 CALM      30.15S
6HR MIN TEMP:  55; 6HR MAX TEMP:  66;

$$

AZZ009>014-017-030700-
NORTHEAST ARIZONA

CITY           SKY/WX    TMP DP  RH WIND       PRES   REMARKS
WINSLOW        MOCLDY    51  45  79 CALM      30.18S
6HR MIN TEMP:  51; 6HR MAX TEMP:  65; 6HR PCP:  0.01;

SAINT JOHNS    PTCLDY    45  41  86 CALM      30.19S
6HR MIN TEMP:  45; 6HR MAX TEMP:  61;

WINDOW ROCK    MOCLDY    44  38  79 CALM      30.22F
6HR MIN TEMP:  43; 6HR MAX TEMP:  54;

SHOW LOW       CLEAR     39  36  87 CALM      30.23S
$$

AZZ023-030700-
GREATER PHOENIX AREA

CITY           SKY/WX    TMP DP  RH WIND       PRES   REMARKS
PHOENIX        CLEAR     78  38  23 NE6       29.90S
6HR MIN TEMP:  77; 6HR MAX TEMP:  87;

BUCKEYE        CLEAR     72  32  23 N7        29.93S
LUKE AFB       CLEAR     73  44  36 N7        29.92R
6HR MIN TEMP:  73; 6HR MAX TEMP:  85;

DEER VALLEY    CLEAR     71  40  32 NE8       29.93S
6HR MIN TEMP:  71; 6HR MAX TEMP:  84;

SCOTTSDALE     CLEAR     75  38  26 N9        29.94F
6HR MIN TEMP:  74; 6HR MAX TEMP:  85;

MESA-GATEWAY   CLEAR     73  39  29 N12       29.93S
$$

AZZ027-028-030700-
SOUTHWEST MARICOPA COUNTY AND PINAL COUNTY

CITY           SKY/WX    TMP DP  RH WIND       PRES   REMARKS
CASA GRANDE    CLEAR    N/A N/A N/A MISG        N/A
GILA BEND      CLEAR     70  43  37 CALM      29.89F
6HR MIN TEMP:  70; 6HR MAX TEMP:  87;

$$

AZZ503-504-507>509-030700-
SOUTHEAST ARIZONA

CITY           SKY/WX    TMP DP  RH WIND       PRES   REMARKS
TUCSON         CLEAR     73  30  20 NW9       29.97S
6HR MIN TEMP:  73; 6HR MAX TEMP:  85;

DAVIS-MONTHAN  CLEAR     71  32  23 NW8       29.95S
6HR MIN TEMP:  71; 6HR MAX TEMP:  83;

NOGALES        CLEAR     57  22  25 E5        30.02S
6HR MIN TEMP:  57; 6HR MAX TEMP:  81;

SIERRA VISTA   CLEAR     61  28  29 SW9       30.07S
6HR MIN TEMP:  60; 6HR MAX TEMP:  76;

DOUGLAS        CLEAR     56  25  30 N8        30.03R
6HR MIN TEMP:  56; 6HR MAX TEMP:  78;

SAFFORD        CLEAR     61  26  26 SE3       30.00R
6HR MIN TEMP:  61; 6HR MAX TEMP:  79; 6HR PCP: TRACE;

$$

AZZ020-021-025-026-031-030700-
SOUTHWEST ARIZONA

CITY           SKY/WX    TMP DP  RH WIND       PRES   REMARKS
YUMA           CLEAR     75  45  34 W6        29.89S
6HR MIN TEMP:  75; 6HR MAX TEMP:  89;

$$

CAZ031-033-041-043-047-048-061-030700-
SOUTHERN CALIFORNIA

CITY           SKY/WX    TMP DP  RH WIND       PRES   REMARKS
DOWNTOWN L.A.  CLEAR     60  53  77 CALM      29.99R
6HR MIN TEMP:  60; 6HR MAX TEMP:  69;

L.A. AIRPORT   CLEAR     59  53  80 S6        29.99R
6HR MIN TEMP:  59; 6HR MAX TEMP:  64;

SAN DIEGO      PTCLDY    63  55  75 N3        30.02S
6HR MIN TEMP:  63; 6HR MAX TEMP:  68;

BURBANK        CLEAR     62  53  72 E10       29.98R
6HR MIN TEMP:  62; 6HR MAX TEMP:  78;

ONTARIO        PTCLDY    64  49  57 W5        30.00R
6HR MIN TEMP:  64; 6HR MAX TEMP:  83;

RIVERSIDE      CLEAR     66  51  58 W3        30.00S
6HR MIN TEMP:  65; 6HR MAX TEMP:  83;

PALM SPRINGS   PTCLDY    79  48  33 NW8       29.94S
6HR MIN TEMP:  79; 6HR MAX TEMP:  90;

EL CENTRO NAS  PTCLDY    75  38  26 N6        29.90S
6HR MIN TEMP:  75; 6HR MAX TEMP:  88;

IMPERIAL       CLEAR     76  43  30 N5        29.88S
6HR MIN TEMP:  73; 6HR MAX TEMP:  89;

BLYTHE         CLEAR     76  37  24 N8        29.91S
6HR MIN TEMP:  76; 6HR MAX TEMP:  89;

NEEDLES        CLEAR     76  39  26 N6        29.95S
6HR MIN TEMP:  76; 6HR MAX TEMP:  87;

$$

NVZ020-UTZ003-030700-
SOUTHERN NEVADA-UTAH

CITY           SKY/WX    TMP DP  RH WIND       PRES   REMARKS
LAS VEGAS      CLEAR     72  36  26 N8        30.00S
6HR MIN TEMP:  72; 6HR MAX TEMP:  80;

SALT LAKE CITY CLEAR     54  34  46 S6        30.18S
6HR MIN TEMP:  54; 6HR MAX TEMP:  68;

$$

NMZ009-TXZ055-030700-
NEW MEXICO-WEST TEXAS

CITY           SKY/WX    TMP DP  RH WIND       PRES   REMARKS
ALBUQUERQUE    MOCLDY    55  36  48 SW9       30.20R
6HR MIN TEMP:  55; 6HR MAX TEMP:  64;

EL PASO        CLEAR     61  31  32 E9        30.10S
6HR MIN TEMP:  61; 6HR MAX TEMP:  72;

$$


........................KEY........................
SKY/WX - SKY CONDITION/WEATHER
TMP    - TEMPERATURE IN FAHRENHEIT
DP     - DEW POINT IN FAHRENHEIT
RH     - RELATIVE HUMIDITY IN PERCENT
WIND   - DIRECTION AND SPEED IN MILES PER HOUR (MPH)
VRB    - VARIABLE WIND DIRECTION
PRES   - MEAN SEA LEVEL PRESSURE IN INCHES OF MERCURY
         F - FALLING PRESSURE   R - RISING PRESSURE
         S - STEADY PRESSURE
VSB    - VISIBILITY IN MILES
HX     - HEAT INDEX IN FAHRENHEIT
WCI    - WIND CHILL INDEX IN FAHRENHEIT
TC     - TEMPERATURE IN CELSIUS WHICH IS ALSO KNOWN AS
         TEMPERATURE IN CENTIGRADE
AFB    - AIR FORCE BASE
         LUKE AFB IS LUKE AIR FORCE BASE
         DAVIS-MONTHAN IS DAVIS-MONTHAN AIR FORCE BASE
NAS    - NAVAL AIR STATION
         EL CENTRO NAS IS EL CENTRO NAVAL AIR STATION
N/A    - NOT AVAILABLE





USA.gov is the U.S. government's official web portal to all federal, state and local government web resources and services.